• în România
  • Lista ţărilor
  • Pe 7 zile
  • Temperatura apei
  • Hartă satelitară
  • Meteo pe hartă
  • Widget-uri
  • user-avatar
    Intrare

    Meteo pe oră la Wien

    Astăzi, 20 Septembrie, Joi

    Timp Temperatura Precipitaţii Vânt Presiune Umiditate
    00:00 +19°C° 0 mm 1 m/s 747 mmHg 74%
    01:00 +19°C° 0 mm 1 m/s 747 mmHg 74%
    02:00 +19°C° 0.1 mm 1 m/s 747 mmHg 75%
    03:00 +18°C° 0.1 mm 1 m/s 747 mmHg 76%
    04:00 +18°C° 0.1 mm 1 m/s 747 mmHg 77%
    05:00 +19°C° 0 mm 1 m/s 747 mmHg 76%
    06:00 +19°C° 0 mm 1 m/s 748 mmHg 74%
    07:00 +20°C° 0 mm 1 m/s 748 mmHg 68%
    08:00 +22°C° 0 mm 1 m/s 748 mmHg 63%
    09:00 +24°C° 0 mm 1 m/s 748 mmHg 57%
    10:00 +24°C° 0 mm 0 m/s 748 mmHg 52%
    11:00 +25°C° 0 mm 0 m/s 747 mmHg 49%
    12:00 +26°C° 0 mm 0 m/s 747 mmHg 46%
    13:00 +27°C° 0 mm 0 m/s 747 mmHg 44%
    14:00 +29°C° 0 mm 1 m/s 747 mmHg 44%
    15:00 +29°C° 0 mm 1 m/s 746 mmHg 44%
    16:00 +28°C° 0 mm 1 m/s 746 mmHg 44%
    17:00 +27°C° 0 mm 1 m/s 746 mmHg 49%
    18:00 +25°C° 0 mm 1 m/s 746 mmHg 54%
    19:00 +23°C° 0 mm 1 m/s 746 mmHg 59%
    20:00 +22°C° 0 mm 1 m/s 745 mmHg 61%
    21:00 +21°C° 0 mm 1 m/s 745 mmHg 62%
    22:00 +21°C° 0 mm 1 m/s 745 mmHg 63%
    23:00 +20°C° 0 mm 1 m/s 745 mmHg 64%

    Mâine, 21 Septembrie, Vineri

    Timp Temperatura Precipitaţii Vânt Presiune Umiditate
    00:00 +20°C° 0 mm 1 m/s 745 mmHg 65%
    01:00 +19°C° 0 mm 1 m/s 745 mmHg 66%
    02:00 +19°C° 0 mm 1 m/s 744 mmHg 67%
    03:00 +19°C° 0 mm 1 m/s 744 mmHg 68%
    04:00 +17°C° 0 mm 2 m/s 744 mmHg 69%
    05:00 +17°C° 0 mm 2 m/s 744 mmHg 69%
    06:00 +18°C° 0 mm 2 m/s 744 mmHg 69%
    07:00 +18°C° 0 mm 2 m/s 744 mmHg 69%
    08:00 +20°C° 0 mm 3 m/s 743 mmHg 62%
    09:00 +24°C° 0 mm 3 m/s 743 mmHg 54%
    10:00 +26°C° 0 mm 4 m/s 743 mmHg 47%
    11:00 +27°C° 0 mm 4 m/s 743 mmHg 44%
    12:00 +29°C° 0 mm 4 m/s 742 mmHg 40%
    13:00 +30°C° 0 mm 4 m/s 742 mmHg 36%
    14:00 +30°C° 0 mm 4 m/s 741 mmHg 38%
    15:00 +30°C° 0 mm 3 m/s 741 mmHg 39%
    16:00 +30°C° 0 mm 3 m/s 741 mmHg 40%
    17:00 +28°C° 0 mm 3 m/s 741 mmHg 45%
    18:00 +26°C° 0 mm 3 m/s 741 mmHg 51%
    19:00 +24°C° 0 mm 2 m/s 741 mmHg 56%
    20:00 +22°C° 0 mm 3 m/s 741 mmHg 57%
    21:00 +22°C° 0 mm 3 m/s 742 mmHg 59%
    22:00 +22°C° 0 mm 3 m/s 742 mmHg 60%
    23:00 +22°C° 0 mm 4 m/s 743 mmHg 63%

    Poimâine, 22 Septembrie, Sâmbătă

    Timp Temperatura Precipitaţii Vânt Presiune Umiditate
    00:00 +21°C° 0 mm 5 m/s 743 mmHg 66%
    01:00 +21°C° 0 mm 5 m/s 744 mmHg 69%
    02:00 +19°C° 0.1 mm 6 m/s 744 mmHg 69%
    03:00 +16°C° 0.1 mm 7 m/s 745 mmHg 69%
    04:00 +15°C° 0.1 mm 7 m/s 745 mmHg 69%
    05:00 +14°C° 1.4 mm 6 m/s 746 mmHg 73%
    06:00 +13°C° 1.4 mm 5 m/s 747 mmHg 77%
    07:00 +12°C° 1.4 mm 4 m/s 748 mmHg 81%
    08:00 +12°C° 1.5 mm 4 m/s 748 mmHg 80%
    09:00 +12°C° 1.5 mm 4 m/s 748 mmHg 79%
    10:00 +12°C° 1.5 mm 3 m/s 749 mmHg 78%
    11:00 +14°C° 0.3 mm 4 m/s 749 mmHg 71%
    12:00 +15°C° 0.3 mm 4 m/s 749 mmHg 64%
    13:00 +17°C° 0.3 mm 4 m/s 749 mmHg 57%
    14:00 +17°C° 0.1 mm 4 m/s 748 mmHg 56%
    15:00 +17°C° 0.1 mm 4 m/s 748 mmHg 55%
    16:00 +17°C° 0.1 mm 3 m/s 748 mmHg 54%
    17:00 +16°C° 0 mm 3 m/s 748 mmHg 58%
    18:00 +14°C° 0 mm 3 m/s 748 mmHg 61%
    19:00 +14°C° 0 mm 2 m/s 749 mmHg 65%
    20:00 +14°C° 0 mm 2 m/s 749 mmHg 66%
    21:00 +14°C° 0 mm 2 m/s 749 mmHg 66%
    22:00 +14°C° 0 mm 2 m/s 749 mmHg 67%
    23:00 +14°C° 0 mm 2 m/s 749 mmHg 67%

    23 Septembrie, Duminică

    Timp Temperatura Precipitaţii Vânt Presiune Umiditate
    00:00 +14°C° 0 mm 2 m/s 749 mmHg 67%
    01:00 +14°C° 0 mm 2 m/s 749 mmHg 68%
    02:00 +14°C° 0 mm 2 m/s 749 mmHg 67%
    03:00 +14°C° 0 mm 1 m/s 749 mmHg 67%
    04:00 +14°C° 0 mm 1 m/s 749 mmHg 66%
    05:00 +14°C° 0.1 mm 1 m/s 749 mmHg 68%
    06:00 +14°C° 0.1 mm 1 m/s 748 mmHg 70%
    07:00 +14°C° 0.1 mm 1 m/s 748 mmHg 72%
    08:00 +14°C° 0.1 mm 1 m/s 748 mmHg 73%
    09:00 +15°C° 0.1 mm 1 m/s 748 mmHg 75%
    10:00 +15°C° 0.1 mm 1 m/s 748 mmHg 76%
    11:00 +15°C° 0.1 mm 2 m/s 748 mmHg 76%
    12:00 +15°C° 0.1 mm 2 m/s 747 mmHg 76%
    13:00 +16°C° 0.1 mm 2 m/s 747 mmHg 75%
    14:00 +16°C° 0 mm 3 m/s 746 mmHg 73%
    15:00 +17°C° 0 mm 3 m/s 746 mmHg 72%
    16:00 +17°C° 0 mm 3 m/s 745 mmHg 70%
    17:00 +16°C° 0 mm 3 m/s 744 mmHg 72%
    18:00 +16°C° 0 mm 3 m/s 744 mmHg 75%
    19:00 +14°C° 0 mm 3 m/s 744 mmHg 77%
    20:00 +14°C° 0.2 mm 3 m/s 743 mmHg 78%
    21:00 +14°C° 0.2 mm 3 m/s 742 mmHg 79%
    22:00 +16°C° 0.2 mm 3 m/s 742 mmHg 80%
    23:00 +16°C° 0 mm 3 m/s 741 mmHg 80%

    24 Septembrie, Luni

    Timp Temperatura Precipitaţii Vânt Presiune Umiditate
    00:00 +16°C° 0 mm 3 m/s 740 mmHg 80%
    01:00 +16°C° 0 mm 3 m/s 738 mmHg 80%
    02:00 +16°C° 0.6 mm 3 m/s 738 mmHg 81%
    03:00 +16°C° 0.6 mm 3 m/s 737 mmHg 83%
    04:00 +15°C° 0.6 mm 4 m/s 736 mmHg 84%
    05:00 +15°C° 0.7 mm 6 m/s 738 mmHg 78%
    06:00 +16°C° 0.7 mm 9 m/s 739 mmHg 73%
    07:00 +16°C° 0.7 mm 11 m/s 740 mmHg 67%
    08:00 +14°C° 0 mm 11 m/s 742 mmHg 63%
    09:00 +14°C° 0 mm 11 m/s 744 mmHg 60%
    10:00 +13°C° 0 mm 11 m/s 745 mmHg 56%
    11:00 +13°C° 0 mm 10 m/s 746 mmHg 55%
    12:00 +13°C° 0 mm 9 m/s 747 mmHg 54%
    13:00 +13°C° 0 mm 8 m/s 748 mmHg 52%
    14:00 +13°C° 0 mm 8 m/s 748 mmHg 50%
    15:00 +13°C° 0 mm 9 m/s 749 mmHg 48%
    16:00 +13°C° 0 mm 9 m/s 749 mmHg 46%
    17:00 +12°C° 0 mm 8 m/s 750 mmHg 49%
    18:00 +11°C° 0 mm 7 m/s 750 mmHg 53%
    19:00 +10°C° 0 mm 6 m/s 751 mmHg 56%
    20:00 +10°C° 0 mm 5 m/s 752 mmHg 59%
    21:00 +9°C° 0 mm 5 m/s 752 mmHg 61%
    22:00 +8°C° 0 mm 4 m/s 753 mmHg 64%
    23:00 +8°C° 0 mm 4 m/s 753 mmHg 65%

    25 Septembrie, Marţi

    Timp Temperatura Precipitaţii Vânt Presiune Umiditate
    00:00 +8°C° 0 mm 4 m/s 754 mmHg 66%
    01:00 +7°C° 0 mm 4 m/s 754 mmHg 67%
    02:00 +7°C° 0 mm 4 m/s 754 mmHg 69%
    03:00 +6°C° 0 mm 4 m/s 755 mmHg 70%
    04:00 +6°C° 0 mm 4 m/s 755 mmHg 71%
    05:00 +6°C° 0 mm 5 m/s 755 mmHg 71%
    06:00 +6°C° 0 mm 5 m/s 756 mmHg 71%
    07:00 +6°C° 0 mm 5 m/s 756 mmHg 71%
    08:00 +8°C° 0 mm 5 m/s 756 mmHg 66%
    09:00 +9°C° 0 mm 5 m/s 757 mmHg 60%
    10:00 +10°C° 0 mm 5 m/s 757 mmHg 54%
    11:00 +12°C° 0.1 mm 5 m/s 757 mmHg 52%
    12:00 +13°C° 0.1 mm 5 m/s 757 mmHg 49%
    13:00 +13°C° 0.1 mm 5 m/s 757 mmHg 47%
    14:00 +13°C° 0.1 mm 5 m/s 757 mmHg 47%
    15:00 +13°C° 0.1 mm 5 m/s 757 mmHg 47%
    16:00 +13°C° 0.1 mm 5 m/s 757 mmHg 47%
    17:00 +11°C° 0 mm 4 m/s 758 mmHg 51%
    18:00 +10°C° 0 mm 3 m/s 758 mmHg 56%
    19:00 +9°C° 0 mm 3 m/s 758 mmHg 61%
    20:00 +8°C° 0 mm 3 m/s 759 mmHg 63%
    21:00 +7°C° 0 mm 2 m/s 759 mmHg 65%
    22:00 +7°C° 0 mm 2 m/s 759 mmHg 67%
    23:00 +6°C° 0 mm 2 m/s 759 mmHg 68%
    Arată mai mult